Lexington Weather

Lexington, Massachusetts, USA

25°F
2/29/2020 2:32am 
  • Lexington Conditions: Clear
  • Temperature: 25.3°F / -3.7°CColder 1.1°F than last hour.
  • Dew Point: 14.9°FIncreased 0.9°Fsince last hour.
  • Relative Humidity: 64%Increased 5.0% since last hour.
  • Wind: Calm, 10-min avg: Calm, gust: None
  • Barometer: 29.73 in Steady
  • Visibility: 10 miles
  • Snow Today: 0.0 in
  •   

Regional Weather Roundup
for Boston / Norton, MA

        
000
ASUS41 KBOX 280410
RWRBOX

REGIONAL WEATHER ROUNDUP
NATIONAL WEATHER SERVICE BOSTON/NORTON MA
1100 PM EST THU FEB 27 2020

NOTE:  "FAIR" INDICATES FEW OR NO CLOUDS BELOW 12,000 FEET WITH NO 
SIGNIFICANT WEATHER AND/OR OBSTRUCTIONS TO VISIBILITY.

MAZALL-280500-
EASTERN MASSACHUSETTS
  
CITY           SKY/WX    TMP DP  RH WIND       PRES   REMARKS
BOSTON         FAIR      34   7  32 W23G38    29.63R WCI  22          
BEVERLY        MOCLDY    31  10  41 W15G24    29.60R WCI  20          
LAWRENCE       FAIR      30  11  45 W17G31    29.62R WCI  18          
BEDFORD        MOCLDY    31   6  35 W15G32    29.62R WCI  20          
BLUE HILL        N/A     28   7  41 W24G48    29.60R WCI  14          
NORWOOD        FAIR      34   7  32 W12G26    29.65R WCI  25          
MARSHFIELD     FAIR      34   7  32 W8G22     29.64S WCI  27          
PLYMOUTH       MOCLDY    32   9  38 W16G26    29.65R WCI  21          
TAUNTON        MOCLDY    32   8  36 W10       29.66R WCI  24          
NEW BEDFORD    CLOUDY    32   7  35 W15G23    29.66S WCI  22          
$$

MAZALL-280500-
CAPE COD AND THE ISLANDS
  
CITY           SKY/WX    TMP DP  RH WIND       PRES   REMARKS
FALMOUTH       CLEAR     32   9  37 W17G30    29.66R WCI  21          
HYANNIS        FAIR      35   8  32 W21G30    29.65R WCI  24          
CHATHAM        FAIR      33  10  38 W13G26    29.66R WCI  24          
PROVINCETOWN   MOCLDY    33  19  56 W25G31    29.64R WCI  20          
NANTUCKET      CLOUDY    36  15  42 W23G35    29.68R WCI  24          
MARTHAS VNYRD  MOCLDY    34  12  40 W17G26    29.69R WCI  23          
$$
 
MAZALL-280500-
CENTRAL AND WESTERN MASSACHUSETTS
  
CITY           SKY/WX    TMP DP  RH WIND       PRES   REMARKS
WORCESTER      FAIR      26   7  44 W17G29    29.59S WCI  13          
FITCHBURG      FAIR      29   6  38 W16G28    29.63R WCI  17          
ORANGE         CLOUDY    29   7  39 W18G28    29.63R WCI  16          
SPRINGFIELD    MOCLDY    30   8  40 W16G22    29.66S WCI  18          
WESTFIELD      FAIR      29   8  41 W12G23    29.67S WCI  19          
NORTH ADAMS    FLURRIES  25  13  60 W17G25    29.63S WCI  12          
PITTSFIELD     FAIR      24   7  48 W16G28    29.60S WCI  11          
$$
 
RIZALL-280500-
RHODE ISLAND
  
CITY           SKY/WX    TMP DP  RH WIND       PRES   REMARKS
PROVIDENCE     MOCLDY    32   9  38 W20G25    29.69R WCI  20          
NEWPORT        FAIR      33   9  36 W12G24    29.69R WCI  24          
BLOCK ISLAND   MOCLDY    32  11  41 W25G40    29.74R WCI  19          
SMITHFIELD     CLOUDY    30  13  49 W13G26    29.65R WCI  20          
WESTERLY       FAIR      34   6  31 W14G22    29.73R WCI  25          
$$
 
CTZALL-280500-
CONNECTICUT
  
CITY           SKY/WX    TMP DP  RH WIND       PRES   REMARKS
BRADLEY INTL   FAIR      31   8  38 W16G25    29.69R WCI  20          
HARTFORD       FAIR      31   9  39 W12       29.72S WCI  22          
BRIDGEPORT     MOCLDY    33   9  36 W18G30    29.77R WCI  22          
DANBURY        MOCLDY    29   8  41 W17G26    29.74R WCI  17          
GROTON         MOCLDY    31   9  39 W17G23    29.73R WCI  19          
NEW HAVEN      CLOUDY    34  14  43 W17G29    29.75S WCI  23          
CHESTER        MOCLDY    30   9  40 W13G21    29.71S WCI  20          
MERIDEN        CLOUDY    31  12  45 W14G29    29.73S WCI  21          
WILLIMANTIC    FAIR      30   7  37 W8G24     29.71R WCI  22          
OXFORD         FLURRIES  28  13  53 W16G31    29.71S WCI  16          
$$

MEZ002-015-021-024-NHZ003-005-008-011-012-014-VTZ005-008-280500-
NORTHERN NEW ENGLAND
  
CITY           SKY/WX    TMP DP  RH WIND       PRES   REMARKS
PORTLAND ME    FAIR      31  13  47 W17G29    29.50R WCI  19          
BANGOR ME      CLOUDY    32  19  58 W8        29.39R WCI  25          
CONCORD NH     CLOUDY    28  11  48 W17G24    29.56R WCI  16          
MANCHESTER NH  MOCLDY    30   8  39 W15G33    29.58R WCI  19          
NASHUA NH      FAIR      29  10  45 W15G23    29.61R WCI  18          
PORTSMOUTH NH  MOCLDY    30   9  40 SW22G30   29.55  WCI  17          
JAFFREY NH     FAIR      26   7  44 SW15G32   29.56R WCI  14          
KEENE NH       FAIR      27  10  49 W14G25    29.61R WCI  16          
BURLINGTON VT  FLURRIES  26  18  71 SW13G22   29.48S WCI  15          
MT. WASHINGTON SNOW       1   1 100 W86         N/A  VSB 0   WCI -34  
$$

NYZ052-076-280500-
EASTERN NEW YORK
  
CITY           SKY/WX    TMP DP  RH WIND       PRES   REMARKS
ALBANY         FLURRIES  28  14  55 W17G26    29.69R WCI  16          
NEW YORK CITY  MOCLDY    33   8  35 W21G33    29.81S WCI  21          
$$
 
ANZALL-280500-
MARINE OBSERVATIONS
  
STATION/POSITION TIME  TEMP    WIND        PRES    VSBY  WAVE
                       AIR SEA DIR/SP/G                  HT/PER
                 (UTC) (F)     (DEG/KT/KT) (MB)    (MI)  (FT/S)
BOSTON BUOY      0350   34 42  260/ 29/ 39 1002.1R         6/ 5
BUZZARDS BAY     0300          290/ 30/ 32 1005.6R
NANTUCKET SOUND  0340                        N/A           4/ 4
MASS BAY-STELLWA 0304   34 41  290/ 27/ 35 1000.1R  1 7/8  8/ 5
ISLE OF SHOALS   0300   32     260/ 32/ 38  999.7R
S OF BLOCK IS    0400      44                N/A          12/ 9
$$

......................KEY.........................
  SKY/WX - SKY CONDITION/PRESENT WEATHER
  TMP    - TEMPERATURE IN FAHRENHEIT
  DWPT   - DEWPOINT IN FAHRENHEIT
  RH     - RELATIVE HUMIDITY IN PERCENT
  WIND   - DIRECTION AND SPEED IN MPH
  PRES   - MEAN SEA LEVEL PRESSURE IN INCHES OF HG
  WCI    - WIND CHILL INDEX
  VSB    - VISIBILITY IN MILES
  HX     - HEAT INDEX
  TC     - TEMPERATURE IN CELSIUS
  VRB    - VARIABLE WIND DIRECTION
  N/A    - NOT AVAILABLE
  
      

Other recent Regional Weather Roundups

Sat Feb 29, 2:10am

Sat Feb 29, 2:00am

Sat Feb 29, 1:10am

Sat Feb 29, 1:00am

Sat Feb 29, 12:10am

Sat Feb 29, 12:00am

Fri Feb 28, 11:10pm

Fri Feb 28, 11:00pm

Fri Feb 28, 10:10pm

Fri Feb 28, 10:00pm

Fri Feb 28, 9:10pm

Fri Feb 28, 9:00pm

Fri Feb 28, 8:10pm

Fri Feb 28, 8:01pm

Fri Feb 28, 7:10pm

Fri Feb 28, 7:00pm

Fri Feb 28, 6:10pm

Fri Feb 28, 6:01pm

Fri Feb 28, 5:10pm

Fri Feb 28, 5:00pm

Fri Feb 28, 4:10pm

Fri Feb 28, 4:01pm

Fri Feb 28, 3:10pm

Fri Feb 28, 3:00pm

Fri Feb 28, 2:10pm

Fri Feb 28, 2:00pm

Fri Feb 28, 1:10pm

Fri Feb 28, 1:01pm

Fri Feb 28, 12:10pm

Fri Feb 28, 12:01pm

Fri Feb 28, 11:10am

Fri Feb 28, 11:00am

Fri Feb 28, 10:10am

Fri Feb 28, 10:00am

Fri Feb 28, 9:10am

Fri Feb 28, 9:01am

Fri Feb 28, 8:10am

Fri Feb 28, 8:00am

Fri Feb 28, 7:10am

Fri Feb 28, 7:00am

Fri Feb 28, 6:10am

Fri Feb 28, 6:00am

Fri Feb 28, 5:10am

Fri Feb 28, 5:00am

Fri Feb 28, 4:10am

Fri Feb 28, 4:00am

Fri Feb 28, 3:10am

Fri Feb 28, 3:00am

Fri Feb 28, 2:10am

Fri Feb 28, 2:00am

Fri Feb 28, 1:10am

Fri Feb 28, 1:00am

Fri Feb 28, 12:10am

Fri Feb 28, 12:00am

Thu Feb 27, 11:01pm

Thu Feb 27, 10:10pm

Thu Feb 27, 10:00pm

Thu Feb 27, 9:10pm

Thu Feb 27, 9:00pm

Thu Feb 27, 8:10pm

Thu Feb 27, 8:01pm

Thu Feb 27, 7:10pm

Thu Feb 27, 7:00pm

Wed Feb 26, 11:10am

Wed Feb 26, 11:00am

Wed Feb 26, 10:10am

Wed Feb 26, 10:01am

Wed Feb 26, 9:10am

Wed Feb 26, 9:00am

Wed Feb 26, 8:10am

Wed Feb 26, 8:00am

Wed Feb 26, 7:10am

Wed Feb 26, 7:00am

Wed Feb 26, 6:10am

Wed Feb 26, 6:00am

Wed Feb 26, 5:10am

Wed Feb 26, 5:00am

Wed Feb 26, 4:10am

Wed Feb 26, 4:00am

Wed Feb 26, 3:10am

Wed Feb 26, 3:00am

Meta data:

ID: e55286af-bdc3-4848-ae62-ffe18bcd2fc4
Link: https://api.weather.gov/products/e55286af-bdc3-4848-ae62-ffe18bcd2fc4